<?xml version='1.0' encoding='UTF-8'?>
<gpx xmlns="http://www.topografix.com/GPX/1/1" creator="www.balnam.be" version="1.1" xmlns:xsi="http://www.w3.org/2001/XMLSchema-instance" xsi:schemaLocation="http://www.topografix.com/GPX/1/1 http://www.topografix.com/GPX/1/1/gpx.xsd">
<trk>
<name>hmmmi1</name>
<cmt>v</cmt>
<desc>Monceau-Imbrechies Chemin n°1 </desc>
<link href="https://chemins.be/monceauimbrechies/chemin/1"/><trkseg>
<trkpt lat="50.047126" lon="4.224050"><time>2026-05-03T09:16:34Z</time></trkpt>
<trkpt lat="50.046840" lon="4.224754"><time>2026-05-03T09:26:34Z</time></trkpt>
<trkpt lat="50.046542" lon="4.229578"><time>2026-05-03T09:36:34Z</time></trkpt>
<trkpt lat="50.046718" lon="4.232805"><time>2026-05-03T09:46:34Z</time></trkpt>
<trkpt lat="50.047154" lon="4.235302"><time>2026-05-03T09:56:34Z</time></trkpt>
</trkseg>
</trk>
<trk>
<name>hmmmi10</name>
<cmt>v</cmt>
<desc>Monceau-Imbrechies Chemin n°10 </desc>
<link href="https://chemins.be/monceauimbrechies/chemin/10"/><trkseg>
<trkpt lat="50.038987" lon="4.217084"><time>2026-05-03T09:16:34Z</time></trkpt>
<trkpt lat="50.038303" lon="4.216779"><time>2026-05-03T09:26:34Z</time></trkpt>
<trkpt lat="50.037943" lon="4.216166"><time>2026-05-03T09:36:34Z</time></trkpt>
<trkpt lat="50.037681" lon="4.215204"><time>2026-05-03T09:46:34Z</time></trkpt>
<trkpt lat="50.037581" lon="4.214995"><time>2026-05-03T09:56:34Z</time></trkpt>
</trkseg>
</trk>
<trk>
<name>hmmmi11</name>
<cmt>v</cmt>
<desc>Monceau-Imbrechies Chemin n°11 </desc>
<link href="https://chemins.be/monceauimbrechies/chemin/11"/><trkseg>
<trkpt lat="50.035795" lon="4.223832"><time>2026-05-03T09:16:34Z</time></trkpt>
<trkpt lat="50.035785" lon="4.223632"><time>2026-05-03T09:26:34Z</time></trkpt>
<trkpt lat="50.035765" lon="4.223342"><time>2026-05-03T09:36:34Z</time></trkpt>
<trkpt lat="50.035685" lon="4.222832"><time>2026-05-03T09:46:34Z</time></trkpt>
<trkpt lat="50.035615" lon="4.222592"><time>2026-05-03T09:56:34Z</time></trkpt>
<trkpt lat="50.035535" lon="4.222442"><time>2026-05-03T10:06:34Z</time></trkpt>
<trkpt lat="50.035385" lon="4.222362"><time>2026-05-03T10:16:34Z</time></trkpt>
<trkpt lat="50.035215" lon="4.222292"><time>2026-05-03T10:26:34Z</time></trkpt>
<trkpt lat="50.035036" lon="4.222296"><time>2026-05-03T10:36:34Z</time></trkpt>
<trkpt lat="50.034609" lon="4.222114"><time>2026-05-03T10:46:34Z</time></trkpt>
</trkseg>
</trk>
<trk>
<name>hmmmi12</name>
<cmt>r</cmt>
<desc>Monceau-Imbrechies Chemin n°12 </desc>
<link href="https://chemins.be/monceauimbrechies/chemin/12"/><trkseg>
<trkpt lat="50.031592" lon="4.226711"><time>2026-05-03T09:16:34Z</time></trkpt>
<trkpt lat="50.024263" lon="4.229770"><time>2026-05-03T09:26:34Z</time></trkpt>
<trkpt lat="50.018540" lon="4.232047"><time>2026-05-03T09:36:34Z</time></trkpt>
</trkseg></trk>
<trk>
<name>hmmmi12</name>
<cmt>q</cmt>
<desc>Monceau-Imbrechies Chemin n°12 </desc>
<link href="https://chemins.be/monceauimbrechies/chemin/12"/><trkseg>
<trkpt lat="50.018540" lon="4.232047"><time>2026-05-03T09:36:34Z</time></trkpt>
<trkpt lat="50.017180" lon="4.232705"><time>2026-05-03T09:46:34Z</time></trkpt>
</trkseg>
</trk>
<trk>
<name>hmmmi13</name>
<cmt>v</cmt>
<desc>Monceau-Imbrechies Chemin n°13 weg</desc>
<link href="https://chemins.be/monceauimbrechies/chemin/13"/><trkseg>
<trkpt lat="50.033490" lon="4.228659"><time>2026-05-03T09:16:34Z</time></trkpt>
<trkpt lat="50.032952" lon="4.229540"><time>2026-05-03T09:26:34Z</time></trkpt>
<trkpt lat="50.032898" lon="4.229973"><time>2026-05-03T09:36:34Z</time></trkpt>
<trkpt lat="50.032854" lon="4.230573"><time>2026-05-03T09:46:34Z</time></trkpt>
<trkpt lat="50.033025" lon="4.231005"><time>2026-05-03T09:56:34Z</time></trkpt>
</trkseg>
</trk>
<trk>
<name>hmmmi14</name>
<cmt>v</cmt>
<desc>Monceau-Imbrechies Chemin n°14 </desc>
<link href="https://chemins.be/monceauimbrechies/chemin/14"/><trkseg>
<trkpt lat="50.030461" lon="4.224908"><time>2026-05-03T09:16:34Z</time></trkpt>
<trkpt lat="50.030710" lon="4.222265"><time>2026-05-03T09:26:34Z</time></trkpt>
<trkpt lat="50.031095" lon="4.221527"><time>2026-05-03T09:36:34Z</time></trkpt>
<trkpt lat="50.032082" lon="4.221527"><time>2026-05-03T09:46:34Z</time></trkpt>
</trkseg>
</trk>
<trk>
<name>hmmmi16</name>
<cmt>v</cmt>
<desc>Monceau-Imbrechies Chemin n°16 </desc>
<link href="https://chemins.be/monceauimbrechies/chemin/16"/><trkseg>
<trkpt lat="50.040269" lon="4.227629"><time>2026-05-03T09:16:34Z</time></trkpt>
<trkpt lat="50.043268" lon="4.228136"><time>2026-05-03T09:26:34Z</time></trkpt>
<trkpt lat="50.045473" lon="4.232891"><time>2026-05-03T09:36:34Z</time></trkpt>
<trkpt lat="50.046806" lon="4.235148"><time>2026-05-03T09:46:34Z</time></trkpt>
</trkseg>
</trk>
<trk>
<name>hmmmi17</name>
<cmt>v</cmt>
<desc>Monceau-Imbrechies Chemin n°17 </desc>
<link href="https://chemins.be/monceauimbrechies/chemin/17"/><trkseg>
<trkpt lat="50.042601" lon="4.224565"><time>2026-05-03T09:16:34Z</time></trkpt>
<trkpt lat="50.043235" lon="4.228101"><time>2026-05-03T09:26:34Z</time></trkpt>
</trkseg>
</trk>
<trk>
<name>hmmmi19</name>
<cmt>v</cmt>
<desc>Monceau-Imbrechies Chemin n°19 </desc>
<link href="https://chemins.be/monceauimbrechies/chemin/19"/><trkseg>
<trkpt lat="50.040464" lon="4.218950"><time>2026-05-03T09:16:34Z</time></trkpt>
<trkpt lat="50.041597" lon="4.216911"><time>2026-05-03T09:26:34Z</time></trkpt>
<trkpt lat="50.042961" lon="4.216139"><time>2026-05-03T09:36:34Z</time></trkpt>
<trkpt lat="50.043201" lon="4.215564"><time>2026-05-03T09:46:34Z</time></trkpt>
<trkpt lat="50.043160" lon="4.215473"><time>2026-05-03T09:56:34Z</time></trkpt>
</trkseg>
</trk>
<trk>
<name>hmmmi20</name>
<cmt>v</cmt>
<desc>Monceau-Imbrechies Chemin n°20 </desc>
<link href="https://chemins.be/monceauimbrechies/chemin/20"/><trkseg>
<trkpt lat="50.041168" lon="4.215639"><time>2026-05-03T09:16:34Z</time></trkpt>
<trkpt lat="50.041449" lon="4.212961"><time>2026-05-03T09:26:34Z</time></trkpt>
<trkpt lat="50.042232" lon="4.212944"><time>2026-05-03T09:36:34Z</time></trkpt>
<trkpt lat="50.044469" lon="4.212077"><time>2026-05-03T09:46:34Z</time></trkpt>
</trkseg>
</trk>
<trk>
<name>hmmmi21</name>
<cmt>v</cmt>
<desc>Monceau-Imbrechies Sentier n°21 </desc>
<link href="https://chemins.be/monceauimbrechies/sentier/21"/><trkseg>
<trkpt lat="50.038057" lon="4.221219"><time>2026-05-03T09:16:34Z</time></trkpt>
<trkpt lat="50.037697" lon="4.220802"><time>2026-05-03T09:26:34Z</time></trkpt>
<trkpt lat="50.037336" lon="4.219756"><time>2026-05-03T09:36:34Z</time></trkpt>
<trkpt lat="50.037227" lon="4.219156"><time>2026-05-03T09:46:34Z</time></trkpt>
</trkseg></trk>
<trk>
<name>hmmmi21</name>
<cmt>q</cmt>
<desc>Monceau-Imbrechies Sentier n°21 </desc>
<link href="https://chemins.be/monceauimbrechies/sentier/21"/><trkseg>
<trkpt lat="50.037227" lon="4.219156"><time>2026-05-03T09:46:34Z</time></trkpt>
<trkpt lat="50.037065" lon="4.218640"><time>2026-05-03T09:56:34Z</time></trkpt>
<trkpt lat="50.037127" lon="4.218291"><time>2026-05-03T10:06:34Z</time></trkpt>
</trkseg>
</trk>
<trk>
<name>hmmmi22</name>
<cmt>q</cmt>
<desc>Monceau-Imbrechies Sentier n°22 </desc>
<link href="https://chemins.be/monceauimbrechies/sentier/22"/><trkseg>
<trkpt lat="50.038393" lon="4.219933"><time>2026-05-03T09:16:34Z</time></trkpt>
<trkpt lat="50.038632" lon="4.220753"><time>2026-05-03T09:26:34Z</time></trkpt>
</trkseg>
</trk>
<trk>
<name>hmmmi23</name>
<cmt>v</cmt>
<desc>Monceau-Imbrechies Sentier n°23 </desc>
<link href="https://chemins.be/monceauimbrechies/sentier/23"/><trkseg>
<trkpt lat="50.036664" lon="4.224539"><time>2026-05-03T09:16:34Z</time></trkpt>
<trkpt lat="50.036548" lon="4.225217"><time>2026-05-03T09:26:34Z</time></trkpt>
<trkpt lat="50.035776" lon="4.226608"><time>2026-05-03T09:36:34Z</time></trkpt>
<trkpt lat="50.036195" lon="4.227149"><time>2026-05-03T09:46:34Z</time></trkpt>
<trkpt lat="50.037485" lon="4.230075"><time>2026-05-03T09:56:34Z</time></trkpt>
<trkpt lat="50.037799" lon="4.231346"><time>2026-05-03T10:06:34Z</time></trkpt>
<trkpt lat="50.037629" lon="4.232401"><time>2026-05-03T10:16:34Z</time></trkpt>
</trkseg>
</trk>
<trk>
<name>hmmmi23bis</name>
<cmt>v</cmt>
<desc>Monceau-Imbrechies Sentier n°23bis </desc>
<link href="https://chemins.be/monceauimbrechies/sentier/23bis"/><trkseg>
<trkpt lat="50.035545" lon="4.226822"><time>2026-05-03T09:16:34Z</time></trkpt>
<trkpt lat="50.035771" lon="4.226625"><time>2026-05-03T09:26:34Z</time></trkpt>
</trkseg>
</trk>
<trk>
<name>hmmmi24</name>
<cmt>q</cmt>
<desc>Monceau-Imbrechies Sentier n°24 </desc>
<link href="https://chemins.be/monceauimbrechies/sentier/24"/><trkseg>
<trkpt lat="50.044355" lon="4.217454"><time>2026-05-03T09:16:34Z</time></trkpt>
<trkpt lat="50.041147" lon="4.221608"><time>2026-05-03T09:26:34Z</time></trkpt>
</trkseg></trk>
<trk>
<name>hmmmi24</name>
<cmt>r</cmt>
<desc>Monceau-Imbrechies Sentier n°24 </desc>
<link href="https://chemins.be/monceauimbrechies/sentier/24"/><trkseg>
<trkpt lat="50.041147" lon="4.221608"><time>2026-05-03T09:26:34Z</time></trkpt>
<trkpt lat="50.040926" lon="4.224355"><time>2026-05-03T09:36:34Z</time></trkpt>
</trkseg></trk>
<trk>
<name>hmmmi24</name>
<cmt>q</cmt>
<desc>Monceau-Imbrechies Sentier n°24 </desc>
<link href="https://chemins.be/monceauimbrechies/sentier/24"/><trkseg>
<trkpt lat="50.040926" lon="4.224355"><time>2026-05-03T09:36:34Z</time></trkpt>
<trkpt lat="50.039233" lon="4.226754"><time>2026-05-03T09:46:34Z</time></trkpt>
<trkpt lat="50.037375" lon="4.230942"><time>2026-05-03T09:56:34Z</time></trkpt>
<trkpt lat="50.036686" lon="4.231792"><time>2026-05-03T10:06:34Z</time></trkpt>
<trkpt lat="50.035765" lon="4.233938"><time>2026-05-03T10:16:34Z</time></trkpt>
</trkseg>
</trk>
<trk>
<name>hmmmi25</name>
<cmt>q</cmt>
<desc>Monceau-Imbrechies Sentier n°25 </desc>
<link href="https://chemins.be/monceauimbrechies/sentier/25"/><trkseg>
<trkpt lat="50.039277" lon="4.213356"><time>2026-05-03T09:16:34Z</time></trkpt>
<trkpt lat="50.039442" lon="4.213330"><time>2026-05-03T09:26:34Z</time></trkpt>
<trkpt lat="50.039525" lon="4.212978"><time>2026-05-03T09:36:34Z</time></trkpt>
<trkpt lat="50.041465" lon="4.212986"><time>2026-05-03T09:46:34Z</time></trkpt>
</trkseg>
</trk>
<trk>
<name>hmmmi26</name>
<cmt>q</cmt>
<desc>Monceau-Imbrechies Sentier n°26 </desc>
<link href="https://chemins.be/monceauimbrechies/sentier/26"/><trkseg>
<trkpt lat="50.041250" lon="4.215055"><time>2026-05-03T09:16:34Z</time></trkpt>
<trkpt lat="50.043152" lon="4.212566"><time>2026-05-03T09:26:34Z</time></trkpt>
</trkseg>
</trk>
<trk>
<name>hmmmi28</name>
<cmt>q</cmt>
<desc>Monceau-Imbrechies Sentier n°28 </desc>
<link href="https://chemins.be/monceauimbrechies/sentier/28"/><trkseg>
<trkpt lat="50.038654" lon="4.218351"><time>2026-05-03T09:16:34Z</time></trkpt>
<trkpt lat="50.038141" lon="4.218214"><time>2026-05-03T09:26:34Z</time></trkpt>
<trkpt lat="50.037403" lon="4.218462"><time>2026-05-03T09:36:34Z</time></trkpt>
<trkpt lat="50.036945" lon="4.218342"><time>2026-05-03T09:46:34Z</time></trkpt>
<trkpt lat="50.036724" lon="4.218557"><time>2026-05-03T09:56:34Z</time></trkpt>
</trkseg>
</trk>
<trk>
<name>hmmmi29</name>
<cmt>q</cmt>
<desc>Monceau-Imbrechies Sentier n°29 </desc>
<link href="https://chemins.be/monceauimbrechies/sentier/29"/><trkseg>
<trkpt lat="50.038301" lon="4.216804"><time>2026-05-03T09:16:34Z</time></trkpt>
<trkpt lat="50.038168" lon="4.216877"><time>2026-05-03T09:26:34Z</time></trkpt>
<trkpt lat="50.037862" lon="4.216933"><time>2026-05-03T09:36:34Z</time></trkpt>
<trkpt lat="50.037126" lon="4.218340"><time>2026-05-03T09:46:34Z</time></trkpt>
</trkseg>
</trk>
<trk>
<name>hmmmi30</name>
<cmt>v</cmt>
<desc>Monceau-Imbrechies Sentier n°30 </desc>
<link href="https://chemins.be/monceauimbrechies/sentier/30"/><trkseg>
<trkpt lat="50.037218" lon="4.219142"><time>2026-05-03T09:16:34Z</time></trkpt>
<trkpt lat="50.037289" lon="4.218402"><time>2026-05-03T09:26:34Z</time></trkpt>
<trkpt lat="50.037441" lon="4.217704"><time>2026-05-03T09:36:34Z</time></trkpt>
<trkpt lat="50.037530" lon="4.217117"><time>2026-05-03T09:46:34Z</time></trkpt>
<trkpt lat="50.037663" lon="4.215218"><time>2026-05-03T09:56:34Z</time></trkpt>
</trkseg>
</trk>
<trk>
<name>hmmmi31</name>
<cmt>v</cmt>
<desc>Monceau-Imbrechies Sentier n°31 </desc>
<link href="https://chemins.be/monceauimbrechies/sentier/31"/><trkseg>
<trkpt lat="50.039278" lon="4.213412"><time>2026-05-03T09:16:34Z</time></trkpt>
<trkpt lat="50.039170" lon="4.212812"><time>2026-05-03T09:26:34Z</time></trkpt>
<trkpt lat="50.039169" lon="4.212212"><time>2026-05-03T09:36:34Z</time></trkpt>
<trkpt lat="50.039257" lon="4.210481"><time>2026-05-03T09:46:34Z</time></trkpt>
<trkpt lat="50.039711" lon="4.207506"><time>2026-05-03T09:56:34Z</time></trkpt>
<trkpt lat="50.039143" lon="4.206586"><time>2026-05-03T10:06:34Z</time></trkpt>
</trkseg>
</trk>
<trk>
<name>hmmmi32</name>
<cmt>q</cmt>
<desc>Monceau-Imbrechies Sentier n°32 </desc>
<link href="https://chemins.be/monceauimbrechies/sentier/32"/><trkseg>
<trkpt lat="50.039282" lon="4.226694"><time>2026-05-03T09:16:34Z</time></trkpt>
<trkpt lat="50.038676" lon="4.225174"><time>2026-05-03T09:26:34Z</time></trkpt>
<trkpt lat="50.038560" lon="4.224299"><time>2026-05-03T09:36:34Z</time></trkpt>
<trkpt lat="50.038059" lon="4.223252"><time>2026-05-03T09:46:34Z</time></trkpt>
<trkpt lat="50.037959" lon="4.222788"><time>2026-05-03T09:56:34Z</time></trkpt>
<trkpt lat="50.037860" lon="4.222797"><time>2026-05-03T10:06:34Z</time></trkpt>
</trkseg>
</trk>
<trk>
<name>hmmmi33</name>
<cmt>q</cmt>
<desc>Monceau-Imbrechies Sentier n°33 </desc>
<link href="https://chemins.be/monceauimbrechies/sentier/33"/><trkseg>
<trkpt lat="50.037468" lon="4.224863"><time>2026-05-03T09:16:34Z</time></trkpt>
<trkpt lat="50.038019" lon="4.223181"><time>2026-05-03T09:26:34Z</time></trkpt>
</trkseg>
</trk>
<trk>
<name>hmmmi34</name>
<cmt>q</cmt>
<desc>Monceau-Imbrechies Sentier n°34 </desc>
<link href="https://chemins.be/monceauimbrechies/sentier/34"/><trkseg>
<trkpt lat="50.034700" lon="4.230107"><time>2026-05-03T09:16:34Z</time></trkpt>
<trkpt lat="50.033949" lon="4.231717"><time>2026-05-03T09:26:34Z</time></trkpt>
</trkseg>
</trk>
<trk>
<name>hmmmi35</name>
<cmt>q</cmt>
<desc>Monceau-Imbrechies Sentier n°35 </desc>
<link href="https://chemins.be/monceauimbrechies/sentier/35"/><trkseg>
<trkpt lat="50.035335" lon="4.223988"><time>2026-05-03T09:16:34Z</time></trkpt>
<trkpt lat="50.035304" lon="4.223769"><time>2026-05-03T09:26:34Z</time></trkpt>
<trkpt lat="50.034902" lon="4.223679"><time>2026-05-03T09:36:34Z</time></trkpt>
<trkpt lat="50.034420" lon="4.223031"><time>2026-05-03T09:46:34Z</time></trkpt>
<trkpt lat="50.034618" lon="4.222117"><time>2026-05-03T09:56:34Z</time></trkpt>
</trkseg>
</trk>
<trk>
<name>hmmmi36</name>
<cmt>q</cmt>
<desc>Monceau-Imbrechies Sentier n°36 </desc>
<link href="https://chemins.be/monceauimbrechies/sentier/36"/><trkseg>
<trkpt lat="50.033264" lon="4.224800"><time>2026-05-03T09:16:34Z</time></trkpt>
<trkpt lat="50.032989" lon="4.224051"><time>2026-05-03T09:26:34Z</time></trkpt>
<trkpt lat="50.033005" lon="4.223794"><time>2026-05-03T09:36:34Z</time></trkpt>
</trkseg>
</trk>
<trk>
<name>hmmmi37</name>
<cmt>q</cmt>
<desc>Monceau-Imbrechies Sentier n°37 </desc>
<link href="https://chemins.be/monceauimbrechies/sentier/37"/><trkseg>
<trkpt lat="50.040048" lon="4.216478"><time>2026-05-03T09:16:34Z</time></trkpt>
<trkpt lat="50.040054" lon="4.214688"><time>2026-05-03T09:26:34Z</time></trkpt>
</trkseg>
</trk>
<trk>
<name>hmmmi38</name>
<cmt>q</cmt>
<desc>Monceau-Imbrechies Sentier n°38 </desc>
<link href="https://chemins.be/monceauimbrechies/sentier/38"/><trkseg>
<trkpt lat="50.030398" lon="4.225119"><time>2026-05-03T09:16:34Z</time></trkpt>
<trkpt lat="50.027134" lon="4.215368"><time>2026-05-03T09:26:34Z</time></trkpt>
</trkseg>
</trk>
<trk>
<name>hmmmi39</name>
<cmt>v</cmt>
<desc>Monceau-Imbrechies Sentier n°39 </desc>
<link href="https://chemins.be/monceauimbrechies/sentier/39"/><trkseg>
<trkpt lat="50.034212" lon="4.216653"><time>2026-05-03T09:16:34Z</time></trkpt>
<trkpt lat="50.033962" lon="4.217812"><time>2026-05-03T09:26:34Z</time></trkpt>
<trkpt lat="50.034867" lon="4.222276"><time>2026-05-03T09:36:34Z</time></trkpt>
</trkseg>
</trk>
<trk>
<name>hmmmi7</name>
<cmt>v</cmt>
<desc>Monceau-Imbrechies Chemin n°7 </desc>
<link href="https://chemins.be/monceauimbrechies/chemin/7"/><trkseg>
<trkpt lat="50.030473" lon="4.224887"><time>2026-05-03T09:16:34Z</time></trkpt>
<trkpt lat="50.028687" lon="4.225436"><time>2026-05-03T09:26:34Z</time></trkpt>
<trkpt lat="50.025103" lon="4.224818"><time>2026-05-03T09:36:34Z</time></trkpt>
<trkpt lat="50.021805" lon="4.226140"><time>2026-05-03T09:46:34Z</time></trkpt>
<trkpt lat="50.017945" lon="4.226123"><time>2026-05-03T09:56:34Z</time></trkpt>
<trkpt lat="50.016423" lon="4.226861"><time>2026-05-03T10:06:34Z</time></trkpt>
<trkpt lat="50.014128" lon="4.227616"><time>2026-05-03T10:16:34Z</time></trkpt>
</trkseg>
</trk>
<trk>
<name>hmmmi8</name>
<cmt>q</cmt>
<desc>Monceau-Imbrechies Chemin n°8 </desc>
<link href="https://chemins.be/monceauimbrechies/chemin/8"/><trkseg>
<trkpt lat="50.032297" lon="4.225830"><time>2026-05-03T09:16:34Z</time></trkpt>
<trkpt lat="50.032065" lon="4.225551"><time>2026-05-03T09:26:34Z</time></trkpt>
<trkpt lat="50.031748" lon="4.225387"><time>2026-05-03T09:36:34Z</time></trkpt>
</trkseg>
</trk>
<trk>
<name>hmmmii1</name>
<cmt>v</cmt>
<desc>Monceau-Imbrechies Sentier n°i1 </desc>
<link href="https://chemins.be/monceauimbrechies/sentier/i1"/><trkseg>
<trkpt lat="50.037662" lon="4.214827"><time>2026-05-03T09:16:34Z</time></trkpt>
<trkpt lat="50.038019" lon="4.212886"><time>2026-05-03T09:26:34Z</time></trkpt>
<trkpt lat="50.038932" lon="4.209588"><time>2026-05-03T09:36:34Z</time></trkpt>
<trkpt lat="50.039729" lon="4.207534"><time>2026-05-03T09:46:34Z</time></trkpt>
</trkseg>
</trk>
<trk>
<name>hmmmii2</name>
<cmt>q</cmt>
<desc>Monceau-Imbrechies Chemin n°i2 </desc>
<link href="https://chemins.be/monceauimbrechies/chemin/i2"/><trkseg>
<trkpt lat="50.032104" lon="4.221561"><time>2026-05-03T09:16:34Z</time></trkpt>
<trkpt lat="50.033054" lon="4.221007"><time>2026-05-03T09:26:34Z</time></trkpt>
<trkpt lat="50.034609" lon="4.222072"><time>2026-05-03T09:36:34Z</time></trkpt>
</trkseg>
</trk>
<trk>
<name>hmmmii3</name>
<cmt>q</cmt>
<desc>Monceau-Imbrechies Chemin n°i3 </desc>
<link href="https://chemins.be/monceauimbrechies/chemin/i3"/><trkseg>
<trkpt lat="50.032735" lon="4.224910"><time>2026-05-03T09:16:34Z</time></trkpt>
<trkpt lat="50.032462" lon="4.223125"><time>2026-05-03T09:26:34Z</time></trkpt>
</trkseg>
</trk>
<trk>
<name>hmmmiL156</name>
<cmt>v</cmt>
<desc>Monceau-Imbrechies Chemin n°L156 Ravel 156</desc>
<link href="https://chemins.be/monceauimbrechies/chemin/L156"/><trkseg>
<trkpt lat="50.022299" lon="4.216286"><time>2026-05-03T09:16:34Z</time></trkpt>
<trkpt lat="50.017951" lon="4.226193"><time>2026-05-03T09:26:34Z</time></trkpt>
<trkpt lat="50.016951" lon="4.231568"><time>2026-05-03T09:36:34Z</time></trkpt>
<trkpt lat="50.017112" lon="4.233468"><time>2026-05-03T09:46:34Z</time></trkpt>
</trkseg>
</trk>
</gpx>